PAL728 RPLL-RPVI

Flight info

Callsign PAL728
Flight time 0h 44m
Altitude 31000
Route VERDE2R VERDE W24 TAPER B472 LAMBO LAMBO2S
Aircraft A21N/M-SDE2E3FGHIRWXY/LB1

Departure

Time 2026-05-08 14:39
Airport Ninoy Aquino International Airport (RPLL)

Arrival

Time 2026-05-08 15:24
Airport Iloilo International Airport (RPVI)
Time Latitude Longitude Altitude Speed Heading
2026-05-08 14:19 14.50877 121.01372 64 ft 0 kts 330°
2026-05-08 14:25 14.50861 121.01382 63 ft 4 kts 330°
2026-05-08 14:25 14.50838 121.01396 62 ft 4 kts 329°
2026-05-08 14:25 14.50819 121.01409 64 ft 4 kts 302°
2026-05-08 14:26 14.50816 121.01431 61 ft 4 kts 246°
2026-05-08 14:26 14.50824 121.01447 61 ft 1 kts 240°
2026-05-08 14:26 14.50825 121.01449 67 ft 0 kts 240°
2026-05-08 14:33 14.50822 121.01445 61 ft 3 kts 240°
2026-05-08 14:33 14.50807 121.01418 68 ft 5 kts 240°
2026-05-08 14:33 14.50789 121.01386 61 ft 5 kts 240°
2026-05-08 14:34 14.50770 121.01351 63 ft 7 kts 240°
2026-05-08 14:34 14.50735 121.01312 66 ft 8 kts 199°
2026-05-08 14:34 14.50673 121.01310 64 ft 9 kts 214°
2026-05-08 14:34 14.50629 121.01247 62 ft 13 kts 240°
2026-05-08 14:35 14.50578 121.01156 65 ft 16 kts 240°
2026-05-08 14:35 14.50522 121.01057 69 ft 16 kts 240°
2026-05-08 14:35 14.50465 121.00954 67 ft 17 kts 240°
2026-05-08 14:35 14.50405 121.00848 67 ft 18 kts 240°
2026-05-08 14:36 14.50343 121.00735 65 ft 18 kts 240°
2026-05-08 14:36 14.50281 121.00622 62 ft 18 kts 240°
2026-05-08 14:36 14.50218 121.00509 62 ft 18 kts 240°
2026-05-08 14:36 14.50155 121.00396 63 ft 18 kts 239°
2026-05-08 14:37 14.50092 121.00285 66 ft 18 kts 240°
2026-05-08 14:37 14.50031 121.00174 66 ft 18 kts 240°
2026-05-08 14:37 14.49970 121.00065 70 ft 17 kts 239°
2026-05-08 14:37 14.49908 120.99969 65 ft 15 kts 210°
2026-05-08 14:38 14.49825 120.99994 69 ft 12 kts 151°
2026-05-08 14:38 14.49814 121.00056 64 ft 9 kts 59°
2026-05-08 14:38 14.49816 121.00061 64 ft 0 kts 59°
2026-05-08 14:38 14.49855 121.00130 67 ft 36 kts 60°
2026-05-08 14:39 14.50084 121.00544 63 ft 95 kts 60°
2026-05-08 14:39 14.50510 121.01308 64 ft 154 kts 60°
2026-05-08 14:39 14.51107 121.02383 320 ft 174 kts 62°
2026-05-08 14:39 14.51720 121.03477 870 ft 179 kts 62°
2026-05-08 14:40 14.52333 121.04580 1430 ft 176 kts 60°
2026-05-08 14:40 14.52928 121.05681 1931 ft 178 kts 60°
2026-05-08 14:40 14.53572 121.06864 2178 ft 201 kts 60°
2026-05-08 14:40 14.54315 121.08208 2334 ft 229 kts 60°
2026-05-08 14:41 14.55135 121.09702 2659 ft 247 kts 62°
2026-05-08 14:41 14.55628 121.11410 3176 ft 255 kts 89°
2026-05-08 14:41 14.55251 121.13190 3799 ft 260 kts 116°
2026-05-08 14:41 14.54066 121.14621 4389 ft 268 kts 143°
2026-05-08 14:42 14.52402 121.15536 4974 ft 274 kts 155°
2026-05-08 14:42 14.50624 121.16272 5616 ft 277 kts 157°
2026-05-08 14:42 14.48816 121.16985 6269 ft 279 kts 157°
2026-05-08 14:42 14.46990 121.17704 6864 ft 282 kts 157°
2026-05-08 14:43 14.45147 121.18420 7496 ft 285 kts 157°
2026-05-08 14:43 14.43284 121.19133 8143 ft 287 kts 157°
2026-05-08 14:43 14.41405 121.19841 8794 ft 289 kts 157°
2026-05-08 14:43 14.39508 121.20546 9448 ft 291 kts 157°
2026-05-08 14:44 14.37588 121.21248 10038 ft 295 kts 157°
2026-05-08 14:44 14.35609 121.21965 10338 ft 309 kts 157°
2026-05-08 14:44 14.33530 121.22719 10515 ft 325 kts 157°
2026-05-08 14:44 14.31347 121.23508 10657 ft 340 kts 157°
2026-05-08 14:45 14.29052 121.24261 10859 ft 353 kts 164°
2026-05-08 14:45 14.26574 121.24531 11204 ft 364 kts 180°
2026-05-08 14:45 14.24051 121.24140 11639 ft 370 kts 190°
2026-05-08 14:45 14.21539 121.23502 12086 ft 373 kts 193°
2026-05-08 14:46 14.19032 121.22806 12586 ft 374 kts 193°
2026-05-08 14:46 14.16511 121.22090 13007 ft 378 kts 193°
2026-05-08 14:46 14.13973 121.21365 13508 ft 379 kts 194°
2026-05-08 14:46 14.11430 121.20637 13956 ft 381 kts 193°
2026-05-08 14:47 14.08864 121.19901 14326 ft 384 kts 193°
2026-05-08 14:47 14.06280 121.19161 14731 ft 386 kts 194°
2026-05-08 14:47 14.03686 121.18418 15155 ft 388 kts 194°
2026-05-08 14:47 14.01109 121.17680 15558 ft 390 kts 194°
2026-05-08 14:48 13.98489 121.16930 15957 ft 392 kts 194°
2026-05-08 14:48 13.95846 121.16174 16364 ft 395 kts 194°
2026-05-08 14:48 13.93191 121.15413 16754 ft 397 kts 194°
2026-05-08 14:48 13.90524 121.14651 17116 ft 399 kts 194°
2026-05-08 14:49 13.87840 121.13883 17477 ft 401 kts 194°
2026-05-08 14:49 13.85148 121.13113 17809 ft 403 kts 194°
2026-05-08 14:49 13.82439 121.12338 18124 ft 405 kts 194°
2026-05-08 14:49 13.79718 121.11560 18398 ft 407 kts 194°
2026-05-08 14:50 13.76984 121.10779 18615 ft 409 kts 194°
2026-05-08 14:50 13.74230 121.09992 18841 ft 411 kts 194°
2026-05-08 14:50 13.71469 121.09203 19075 ft 412 kts 194°
2026-05-08 14:50 13.68705 121.08414 19315 ft 413 kts 194°
2026-05-08 14:51 13.65928 121.07621 19529 ft 415 kts 194°
2026-05-08 14:51 13.63147 121.06827 19747 ft 415 kts 194°
2026-05-08 14:51 13.60360 121.06032 19945 ft 416 kts 194°
2026-05-08 14:51 13.57565 121.05235 20126 ft 417 kts 194°
2026-05-08 14:52 13.54752 121.04490 20304 ft 418 kts 189°
2026-05-08 14:52 13.49031 121.04705 20636 ft 414 kts 160°
2026-05-08 14:52 13.46422 121.05908 20823 ft 410 kts 148°
2026-05-08 14:53 13.43975 121.07410 21001 ft 410 kts 145°
2026-05-08 14:53 13.41604 121.09055 21155 ft 411 kts 142°
2026-05-08 14:53 13.39289 121.10748 21415 ft 409 kts 141°
2026-05-08 14:53 13.36971 121.12459 21570 ft 412 kts 143°
2026-05-08 14:54 13.34625 121.14175 21719 ft 414 kts 142°
2026-05-08 14:54 13.32268 121.15877 21890 ft 416 kts 143°
2026-05-08 14:54 13.29887 121.17572 22090 ft 417 kts 144°
2026-05-08 14:54 13.27492 121.19261 22274 ft 418 kts 143°
2026-05-08 14:55 13.25122 121.20923 22476 ft 419 kts 144°
2026-05-08 14:55 13.22710 121.22611 22665 ft 420 kts 143°
2026-05-08 14:55 13.20296 121.24300 22915 ft 419 kts 143°
2026-05-08 14:55 13.17876 121.25992 22993 ft 424 kts 144°
2026-05-08 14:56 13.15430 121.27704 23070 ft 427 kts 144°
2026-05-08 14:56 13.12968 121.29428 23254 ft 428 kts 144°
2026-05-08 14:56 13.10511 121.31149 23432 ft 429 kts 144°
2026-05-08 14:56 13.08045 121.32876 23581 ft 430 kts 144°
2026-05-08 14:57 13.05572 121.34607 23724 ft 431 kts 144°
2026-05-08 14:57 13.03098 121.36339 23873 ft 431 kts 145°
2026-05-08 14:57 13.00618 121.38075 24035 ft 432 kts 145°
2026-05-08 14:57 12.98129 121.39816 24185 ft 433 kts 145°
2026-05-08 14:58 12.95635 121.41560 24351 ft 434 kts 145°
2026-05-08 14:58 12.93141 121.43305 24530 ft 435 kts 145°
2026-05-08 14:58 12.91483 121.44464 24653 ft 435 kts 145°
2026-05-08 14:58 12.88127 121.46809 24919 ft 437 kts 145°
2026-05-08 14:59 12.86466 121.47970 25058 ft 437 kts 145°
2026-05-08 14:59 12.81430 121.51488 25503 ft 439 kts 145°
2026-05-08 14:59 12.78912 121.53246 25821 ft 437 kts 145°
2026-05-08 15:00 12.76396 121.55002 25976 ft 440 kts 145°
2026-05-08 15:00 12.73862 121.56771 26235 ft 441 kts 146°
2026-05-08 15:00 12.71317 121.58547 26400 ft 443 kts 146°
2026-05-08 15:00 12.68770 121.60324 26642 ft 445 kts 146°
2026-05-08 15:01 12.66207 121.62111 26893 ft 445 kts 146°
2026-05-08 15:01 12.63655 121.63890 27064 ft 447 kts 146°
2026-05-08 15:01 12.61079 121.65686 27298 ft 447 kts 146°
2026-05-08 15:01 12.58504 121.67480 27542 ft 448 kts 146°
2026-05-08 15:02 12.55919 121.69282 27664 ft 451 kts 146°
2026-05-08 15:02 12.53321 121.71091 27858 ft 452 kts 146°
2026-05-08 15:02 12.50713 121.72907 28035 ft 454 kts 146°
2026-05-08 15:02 12.48098 121.74728 28227 ft 455 kts 146°
2026-05-08 15:03 12.45474 121.76554 28467 ft 455 kts 147°
2026-05-08 15:03 12.42899 121.78347 28744 ft 454 kts 146°
2026-05-08 15:03 12.40286 121.80165 28889 ft 455 kts 146°
2026-05-08 15:03 12.37659 121.81971 28904 ft 455 kts 149°
2026-05-08 15:04 12.31958 121.84716 28744 ft 445 kts 156°
2026-05-08 15:04 12.29216 121.86096 28489 ft 433 kts 150°
2026-05-08 15:04 12.26665 121.87647 28242 ft 422 kts 149°
2026-05-08 15:05 12.24184 121.89214 28000 ft 418 kts 148°
2026-05-08 15:05 12.21715 121.90793 27751 ft 419 kts 148°
2026-05-08 15:05 12.19251 121.92376 27504 ft 418 kts 148°
2026-05-08 15:05 12.16791 121.93961 27258 ft 417 kts 148°
2026-05-08 15:06 12.14344 121.95539 27020 ft 416 kts 148°
2026-05-08 15:06 12.11906 121.97112 26770 ft 412 kts 148°
2026-05-08 15:06 12.09503 121.98662 26398 ft 405 kts 148°
2026-05-08 15:06 12.07127 122.00196 25903 ft 402 kts 147°
2026-05-08 15:07 12.04771 122.01715 25396 ft 400 kts 147°
2026-05-08 15:07 12.02427 122.03227 24887 ft 398 kts 147°
2026-05-08 15:07 12.00095 122.04731 24381 ft 396 kts 147°
2026-05-08 15:07 11.97770 122.06230 23864 ft 395 kts 147°
2026-05-08 15:08 11.95450 122.07726 23327 ft 394 kts 146°
2026-05-08 15:08 11.93136 122.09218 22750 ft 392 kts 146°
2026-05-08 15:08 11.90843 122.10695 22234 ft 389 kts 146°
2026-05-08 15:08 11.88565 122.12163 21722 ft 385 kts 146°
2026-05-08 15:09 11.86306 122.13617 21220 ft 382 kts 146°
2026-05-08 15:09 11.84065 122.15060 20711 ft 379 kts 146°
2026-05-08 15:09 11.81797 122.16425 20072 ft 380 kts 149°
2026-05-08 15:09 11.79420 122.17686 19164 ft 390 kts 150°
2026-05-08 15:10 11.76988 122.18936 18481 ft 391 kts 151°
2026-05-08 15:10 11.74562 122.20166 17863 ft 388 kts 151°
2026-05-08 15:10 11.72150 122.21383 17221 ft 384 kts 151°
2026-05-08 15:10 11.69777 122.22576 16323 ft 378 kts 151°
2026-05-08 15:11 11.67433 122.23755 15486 ft 372 kts 151°
2026-05-08 15:11 11.65164 122.24892 15011 ft 364 kts 151°
2026-05-08 15:11 11.62909 122.26020 14551 ft 359 kts 150°
2026-05-08 15:11 11.60679 122.27141 14084 ft 355 kts 150°
2026-05-08 15:12 11.58475 122.28250 13618 ft 351 kts 150°
2026-05-08 15:12 11.56299 122.29343 13133 ft 346 kts 150°
2026-05-08 15:12 11.54157 122.30418 12695 ft 341 kts 151°
2026-05-08 15:12 11.52048 122.31477 12309 ft 334 kts 151°
2026-05-08 15:13 11.49973 122.32518 11906 ft 330 kts 151°
2026-05-08 15:13 11.47923 122.33547 11472 ft 327 kts 151°
2026-05-08 15:13 11.45887 122.34568 11058 ft 325 kts 151°
2026-05-08 15:13 11.43870 122.35580 10641 ft 322 kts 151°
2026-05-08 15:14 11.41864 122.36585 10224 ft 320 kts 151°
2026-05-08 15:14 11.39911 122.37562 10122 ft 304 kts 151°
2026-05-08 15:14 11.38059 122.38487 10014 ft 290 kts 151°
2026-05-08 15:14 11.36255 122.39391 9620 ft 289 kts 151°
2026-05-08 15:15 11.34453 122.40295 9218 ft 287 kts 151°
2026-05-08 15:15 11.32689 122.41180 8871 ft 285 kts 151°
2026-05-08 15:15 11.30919 122.42066 8512 ft 282 kts 151°
2026-05-08 15:15 11.29167 122.42943 8164 ft 279 kts 151°
2026-05-08 15:16 11.27435 122.43811 7822 ft 277 kts 151°
2026-05-08 15:16 11.25709 122.44675 7483 ft 275 kts 151°
2026-05-08 15:16 11.23996 122.45533 7136 ft 273 kts 151°
2026-05-08 15:16 11.22302 122.46381 6810 ft 271 kts 151°
2026-05-08 15:17 11.20611 122.47227 6473 ft 269 kts 151°
2026-05-08 15:17 11.18935 122.48066 6133 ft 267 kts 151°
2026-05-08 15:17 11.17274 122.48897 5790 ft 265 kts 151°
2026-05-08 15:17 11.15624 122.49722 5458 ft 263 kts 151°
2026-05-08 15:18 11.13986 122.50541 5126 ft 261 kts 151°
2026-05-08 15:18 11.12362 122.51352 4802 ft 259 kts 151°
2026-05-08 15:18 11.10750 122.52159 4463 ft 257 kts 151°
2026-05-08 15:18 11.09153 122.52957 4155 ft 255 kts 150°
2026-05-08 15:19 11.07572 122.53746 3843 ft 254 kts 150°
2026-05-08 15:19 11.05992 122.54536 3525 ft 252 kts 150°
2026-05-08 15:19 11.04419 122.55321 3218 ft 252 kts 151°
2026-05-08 15:19 11.02727 122.55938 3038 ft 267 kts 168°
2026-05-08 15:20 11.00870 122.55827 3018 ft 266 kts 192°
2026-05-08 15:20 10.99155 122.55266 3023 ft 250 kts 198°
2026-05-08 15:20 10.97589 122.54671 3046 ft 230 kts 198°
2026-05-08 15:20 10.96174 122.54127 3031 ft 203 kts 198°
2026-05-08 15:21 10.94925 122.53650 3032 ft 184 kts 198°
2026-05-08 15:21 10.93792 122.53222 3028 ft 165 kts 197°
2026-05-08 15:21 10.92736 122.52826 3021 ft 160 kts 197°
2026-05-08 15:21 10.91690 122.52439 3015 ft 160 kts 197°
2026-05-08 15:22 10.90638 122.52050 2893 ft 166 kts 198°
2026-05-08 15:22 10.89502 122.51606 2252 ft 183 kts 201°
2026-05-08 15:22 10.88257 122.51158 1488 ft 196 kts 197°
2026-05-08 15:22 10.86962 122.50691 909 ft 194 kts 199°
2026-05-08 15:23 10.85718 122.50235 488 ft 187 kts 200°
2026-05-08 15:23 10.84517 122.49791 202 ft 180 kts 200°
2026-05-08 15:23 10.83436 122.49387 144 ft 137 kts 200°
2026-05-08 15:23 10.82828 122.49159 144 ft 57 kts 200°
2026-05-08 15:24 10.82622 122.49082 144 ft 16 kts 207°
2026-05-08 15:24 10.82562 122.49054 144 ft 1 kts 148°
2026-05-08 15:24 10.82562 122.49061 144 ft 1 kts 85°
2026-05-08 15:24 10.82596 122.49075 144 ft 14 kts 18°
2026-05-08 15:25 10.82744 122.49123 143 ft 27 kts 19°
2026-05-08 15:25 10.82913 122.49190 144 ft 26 kts 21°
2026-05-08 15:25 10.83063 122.49251 144 ft 17 kts 36°
2026-05-08 15:25 10.83071 122.49354 144 ft 16 kts 109°
2026-05-08 15:26 10.83033 122.49461 143 ft 14 kts 109°
2026-05-08 15:26 10.83064 122.49537 143 ft 13 kts 23°
2026-05-08 15:26 10.83148 122.49569 146 ft 13 kts 20°
2026-05-08 15:26 10.83177 122.49582 143 ft 2 kts 39°
2026-05-08 15:27 10.83181 122.49616 141 ft 5 kts 103°
2026-05-08 15:27 10.83170 122.49647 143 ft 4 kts 110°
2026-05-08 15:27 10.83167 122.49654 143 ft 0 kts 110°